Language: 


Des rapports , des résumés tant et plus, au choix de chacun....


Données statistiques de la station
Quotidien Rapport Mai 3, 2017 Unités:  Métrique    Anglais   les deux
« Précédent Jour
Suivant Jour »
Quotidien Hebdomadaire Mensuel Annuel Actuel
  Haut: Bas: Moyen:
Température: 13.9 °C 8.2 °C 10.2 °C
Pt de rosée: 13.0 °C 8.0 °C 9.3 °C
Humidité: 98 % 75 % 93 %
Vitesse du vent: 13.7 km/h 0.0 km/h 5.9 km/h
Rafales: 16.6 km/h - -
Vent:- - SSE
Pression: 1018.2 hPa 1016.1 hPa -
Précipitation: 3.8 mm    
Historical Graphs
 
 
Données statistiques pour Mai 3, 2017
Heure Température Point de rosée Pression Vent Vitesse du vent Refales Humidité Pluie (taux horaire)
00:04 9.3 °C 9.0 °C 1016.8 hPa NNW 6.1 km/h 10.5 km/h 98 % 0.0 mm
00:09 9.3 °C 9.0 °C 1016.8 hPa West 3.5 km/h 10.5 km/h 98 % 0.0 mm
00:14 9.2 °C 9.0 °C 1016.8 hPa NW 4.7 km/h 6.9 km/h 98 % 0.0 mm
00:19 9.2 °C 9.0 °C 1016.8 hPa NW 4.3 km/h 6.4 km/h 98 % 0.0 mm
00:24 9.1 °C 9.0 °C 1016.1 hPa NNE 2.1 km/h 7.9 km/h 98 % 0.0 mm
00:29 9.2 °C 9.0 °C 1016.1 hPa NNW 2.1 km/h 7.9 km/h 98 % 0.0 mm
00:34 9.1 °C 9.0 °C 1016.1 hPa WNW 4.7 km/h 7.9 km/h 98 % 0.0 mm
00:39 9.0 °C 9.0 °C 1016.1 hPa NW 3.2 km/h 6.9 km/h 98 % 0.0 mm
00:44 9.0 °C 9.0 °C 1016.1 hPa NNE 3.5 km/h 8.7 km/h 98 % 0.0 mm
00:49 8.9 °C 9.0 °C 1016.1 hPa WNW 5.8 km/h 8.7 km/h 98 % 0.0 mm
00:54 8.9 °C 9.0 °C 1016.8 hPa NW 4.0 km/h 7.9 km/h 98 % 0.0 mm
00:59 8.9 °C 9.0 °C 1016.8 hPa NW 4.0 km/h 7.9 km/h 98 % 0.0 mm
01:04 8.9 °C 9.0 °C 1016.8 hPa WNW 4.7 km/h 7.9 km/h 98 % 0.0 mm
01:09 8.9 °C 9.0 °C 1016.1 hPa NNW 2.6 km/h 10.1 km/h 98 % 0.0 mm
01:14 8.9 °C 9.0 °C 1016.1 hPa North 8.7 km/h 8.7 km/h 98 % 0.0 mm
01:19 8.9 °C 9.0 °C 1016.1 hPa North 3.2 km/h 9.0 km/h 98 % 0.0 mm
01:24 9.0 °C 9.0 °C 1016.8 hPa NNW 6.1 km/h 9.3 km/h 98 % 0.0 mm
01:29 9.0 °C 9.0 °C 1016.8 hPa ENE 5.8 km/h 9.7 km/h 98 % 0.0 mm
01:35 8.9 °C 9.0 °C 1016.8 hPa NNW 6.4 km/h 9.7 km/h 98 % 0.0 mm
01:40 8.9 °C 9.0 °C 1016.8 hPa NW 6.1 km/h 8.7 km/h 98 % 0.0 mm
01:45 8.9 °C 9.0 °C 1016.8 hPa WNW 4.0 km/h 9.0 km/h 98 % 0.0 mm
01:50 8.9 °C 9.0 °C 1016.8 hPa Calm   9.0 km/h 98 % 0.0 mm
01:55 8.8 °C 9.0 °C 1016.8 hPa North 2.1 km/h 6.4 km/h 98 % 0.0 mm
02:00 8.8 °C 9.0 °C 1016.8 hPa North 4.0 km/h 7.9 km/h 98 % 0.0 mm
02:05 8.8 °C 9.0 °C 1016.8 hPa North 6.1 km/h 7.9 km/h 98 % 0.0 mm
02:10 8.9 °C 9.0 °C 1016.1 hPa NW 9.0 km/h 9.3 km/h 98 % 0.0 mm
02:15 8.8 °C 9.0 °C 1016.1 hPa NNW 5.5 km/h 9.3 km/h 98 % 0.0 mm
02:20 8.8 °C 9.0 °C 1016.1 hPa WNW 2.6 km/h 9.0 km/h 98 % 0.0 mm
02:25 8.8 °C 9.0 °C 1016.8 hPa WNW 4.3 km/h 8.7 km/h 98 % 0.0 mm
02:30 8.7 °C 9.0 °C 1016.8 hPa NNW 5.8 km/h 6.4 km/h 98 % 0.0 mm
02:35 8.7 °C 9.0 °C 1016.8 hPa NNW 2.6 km/h 6.9 km/h 98 % 0.0 mm
02:40 8.7 °C 9.0 °C 1016.8 hPa NNW 2.1 km/h 6.9 km/h 98 % 0.0 mm
02:45 8.6 °C 9.0 °C 1016.8 hPa WNW 5.5 km/h 6.4 km/h 98 % 0.0 mm
02:50 8.6 °C 9.0 °C 1016.8 hPa NNW 1.8 km/h 6.4 km/h 98 % 0.0 mm
02:55 8.6 °C 9.0 °C 1016.8 hPa NW 4.3 km/h 6.4 km/h 98 % 0.0 mm
03:01 8.5 °C 9.0 °C 1016.8 hPa NNW 4.3 km/h 6.4 km/h 98 % 0.0 mm
03:06 8.5 °C 9.0 °C 1016.8 hPa NNW 1.8 km/h 5.8 km/h 98 % 0.0 mm
03:11 8.5 °C 9.0 °C 1016.8 hPa NW 3.2 km/h 5.5 km/h 98 % 0.0 mm
03:16 8.4 °C 9.0 °C 1016.8 hPa Calm   5.5 km/h 98 % 0.0 mm
03:21 8.4 °C 9.0 °C 1016.8 hPa North 3.5 km/h 6.9 km/h 98 % 0.0 mm
03:26 8.4 °C 9.0 °C 1016.8 hPa NW 4.0 km/h 6.9 km/h 98 % 0.0 mm
03:31 8.3 °C 9.0 °C 1016.8 hPa North 4.3 km/h 4.7 km/h 98 % 0.0 mm
03:36 8.4 °C 9.0 °C 1016.8 hPa Calm   5.0 km/h 98 % 0.0 mm
03:41 8.3 °C 9.0 °C 1016.8 hPa NW 2.6 km/h 5.0 km/h 98 % 0.0 mm
03:46 8.4 °C 9.0 °C 1016.8 hPa WNW 1.4 km/h 5.0 km/h 98 % 0.0 mm
03:51 8.4 °C 9.0 °C 1016.8 hPa NNW 1.8 km/h 6.1 km/h 98 % 0.0 mm
03:57 8.5 °C 9.0 °C 1016.8 hPa North 5.5 km/h 6.1 km/h 98 % 0.0 mm
04:02 8.5 °C 9.0 °C 1016.8 hPa WNW 1.4 km/h 6.1 km/h 98 % 0.0 mm
04:07 8.6 °C 9.0 °C 1016.8 hPa North 4.0 km/h 7.9 km/h 98 % 0.0 mm
04:12 8.6 °C 9.0 °C 1016.8 hPa NNW 3.2 km/h 7.9 km/h 98 % 0.0 mm
04:17 8.6 °C 9.0 °C 1016.8 hPa NNW 1.8 km/h 6.1 km/h 98 % 0.0 mm
04:22 8.5 °C 9.0 °C 1016.8 hPa Calm   6.1 km/h 98 % 0.0 mm
04:27 8.5 °C 9.0 °C 1016.8 hPa NE 3.2 km/h 5.0 km/h 98 % 0.0 mm
04:32 8.4 °C 9.0 °C 1016.8 hPa NNE 6.4 km/h 6.4 km/h 98 % 0.0 mm
04:37 8.3 °C 9.0 °C 1016.8 hPa North 5.5 km/h 6.4 km/h 98 % 0.0 mm
04:42 8.3 °C 9.0 °C 1016.8 hPa North 5.5 km/h 6.4 km/h 98 % 0.0 mm
04:47 8.3 °C 9.0 °C 1016.8 hPa NNE 5.0 km/h 6.4 km/h 98 % 0.0 mm
04:52 8.3 °C 9.0 °C 1016.8 hPa NE 5.0 km/h 6.4 km/h 98 % 0.0 mm
04:57 8.3 °C 9.0 °C 1016.8 hPa NE 6.9 km/h 6.9 km/h 98 % 0.0 mm
05:02 8.3 °C 9.0 °C 1016.8 hPa NNE 5.5 km/h 7.6 km/h 98 % 0.0 mm
05:07 8.3 °C 9.0 °C 1016.8 hPa NE 7.6 km/h 7.6 km/h 98 % 0.0 mm
05:12 8.3 °C 9.0 °C 1016.8 hPa NE 5.5 km/h 7.9 km/h 98 % 0.0 mm
05:17 8.3 °C 9.0 °C 1016.8 hPa NE 6.4 km/h 7.9 km/h 98 % 0.0 mm
05:22 8.3 °C 9.0 °C 1016.8 hPa NE 5.5 km/h 6.9 km/h 98 % 0.0 mm
05:27 8.4 °C 9.0 °C 1016.8 hPa NNE 5.0 km/h 6.4 km/h 98 % 0.0 mm
05:33 8.4 °C 9.0 °C 1016.8 hPa ENE 6.1 km/h 6.4 km/h 98 % 0.0 mm
05:38 8.3 °C 9.0 °C 1016.8 hPa NE 4.3 km/h 6.4 km/h 98 % 0.0 mm
05:43 8.3 °C 9.0 °C 1016.8 hPa NE 4.0 km/h 6.4 km/h 98 % 0.0 mm
05:48 8.3 °C 9.0 °C 1016.8 hPa NE 4.7 km/h 6.4 km/h 98 % 0.0 mm
05:53 8.3 °C 9.0 °C 1016.8 hPa NE 4.3 km/h 6.4 km/h 98 % 0.0 mm
05:58 8.3 °C 9.0 °C 1016.8 hPa Calm   5.5 km/h 98 % 0.0 mm
06:03 8.3 °C 9.0 °C 1016.8 hPa ENE 4.3 km/h 5.0 km/h 98 % 0.0 mm
06:06 8.3 °C 9.0 °C 1016.8 hPa NE 5.0 km/h 5.0 km/h 98 % 0.0 mm
06:11 8.3 °C 9.0 °C 1016.8 hPa NNE 5.0 km/h 6.1 km/h 98 % 0.0 mm
06:13 8.3 °C 9.0 °C 1016.8 hPa North 5.0 km/h 6.1 km/h 98 % 0.0 mm
06:17 8.3 °C 9.0 °C 1016.8 hPa NNE 4.7 km/h 6.1 km/h 98 % 0.0 mm
06:22 8.3 °C 9.0 °C 1016.8 hPa NE 6.9 km/h 7.9 km/h 98 % 0.0 mm
06:27 8.3 °C 9.0 °C 1016.8 hPa NNE 5.5 km/h 7.9 km/h 98 % 0.0 mm
06:32 8.3 °C 9.0 °C 1016.8 hPa NE 2.1 km/h 6.9 km/h 98 % 0.0 mm
06:37 8.3 °C 9.0 °C 1016.8 hPa NNE 2.1 km/h 6.1 km/h 98 % 0.0 mm
06:42 8.3 °C 9.0 °C 1016.8 hPa NE 4.3 km/h 5.0 km/h 98 % 0.0 mm
06:47 8.3 °C 9.0 °C 1016.8 hPa Calm   5.5 km/h 98 % 0.0 mm
06:52 8.2 °C 8.0 °C 1016.8 hPa NE 1.4 km/h 5.5 km/h 98 % 0.0 mm
06:57 8.2 °C 8.0 °C 1016.8 hPa NNE 3.2 km/h 5.0 km/h 98 % 0.3 mm
07:02 8.2 °C 8.0 °C 1016.8 hPa NNE 3.5 km/h 5.0 km/h 98 % 0.3 mm
07:04 8.2 °C 8.0 °C 1016.8 hPa NNE 3.2 km/h 5.0 km/h 98 % 0.3 mm
07:09 8.2 °C 8.0 °C 1016.8 hPa North 4.0 km/h 5.5 km/h 98 % 0.3 mm
07:14 8.2 °C 8.0 °C 1016.8 hPa NNW 2.6 km/h 5.8 km/h 98 % 0.3 mm
07:19 8.3 °C 9.0 °C 1016.8 hPa NNW 4.0 km/h 5.8 km/h 98 % 0.3 mm
07:24 8.3 °C 9.0 °C 1016.8 hPa NNE 4.7 km/h 5.5 km/h 98 % 0.3 mm
07:29 8.3 °C 9.0 °C 1016.8 hPa NNE 5.5 km/h 5.5 km/h 98 % 0.3 mm
07:35 8.3 °C 9.0 °C 1016.8 hPa North 1.8 km/h 5.5 km/h 98 % 0.3 mm
07:40 8.4 °C 9.0 °C 1016.8 hPa Calm   4.3 km/h 98 % 0.5 mm
07:45 8.4 °C 9.0 °C 1016.8 hPa NNW 2.1 km/h 5.0 km/h 98 % 0.5 mm
07:50 8.4 °C 9.0 °C 1016.8 hPa North 1.4 km/h 5.0 km/h 98 % 0.5 mm
07:55 8.5 °C 9.0 °C 1016.8 hPa Calm   4.3 km/h 98 % 0.3 mm
08:00 8.5 °C 9.0 °C 1016.8 hPa Calm   4.3 km/h 98 % 0.3 mm
08:05 8.6 °C 9.0 °C 1016.8 hPa Calm     98 % 0.3 mm
08:10 8.7 °C 9.0 °C 1016.8 hPa Calm     98 % 0.3 mm
08:15 8.7 °C 9.0 °C 1016.8 hPa Calm     98 % 0.3 mm
08:20 8.8 °C 9.0 °C 1016.8 hPa North 2.6 km/h 5.5 km/h 98 % 0.3 mm
08:25 8.9 °C 9.0 °C 1016.8 hPa Calm   5.5 km/h 98 % 0.3 mm
08:30 9.0 °C 9.0 °C 1016.8 hPa Calm     98 % 0.3 mm
08:35 9.0 °C 9.0 °C 1016.8 hPa Calm   2.1 km/h 98 % 0.3 mm
08:40 9.1 °C 9.0 °C 1016.8 hPa Calm   3.2 km/h 98 % 0.0 mm
08:45 9.2 °C 9.0 °C 1016.8 hPa North 3.5 km/h 3.5 km/h 98 % 0.3 mm
08:50 9.2 °C 9.0 °C 1016.8 hPa North 2.1 km/h 4.3 km/h 98 % 0.3 mm
08:55 9.1 °C 9.0 °C 1016.8 hPa North 1.4 km/h 4.3 km/h 98 % 0.3 mm
08:59 9.2 °C 9.0 °C 1016.8 hPa Calm   4.3 km/h 98 % 0.5 mm
09:00 9.2 °C 9.0 °C 1016.8 hPa Calm   4.3 km/h 98 % 0.5 mm
09:05 9.3 °C 9.0 °C 1016.8 hPa NE 4.0 km/h 4.3 km/h 98 % 0.5 mm
09:10 9.3 °C 9.0 °C 1016.8 hPa NNW 3.5 km/h 5.0 km/h 98 % 1.0 mm
09:15 9.3 °C 9.0 °C 1016.8 hPa North 3.2 km/h 5.0 km/h 98 % 1.0 mm
09:20 9.3 °C 9.0 °C 1016.8 hPa NNW 5.8 km/h 6.9 km/h 98 % 1.0 mm
09:25 9.3 °C 9.0 °C 1016.8 hPa North 4.3 km/h 6.9 km/h 98 % 1.3 mm
09:30 9.3 °C 9.0 °C 1016.8 hPa North 7.9 km/h 9.3 km/h 98 % 1.3 mm
09:35 9.3 °C 9.0 °C 1016.8 hPa North 5.0 km/h 9.3 km/h 98 % 1.5 mm
09:40 9.3 °C 9.0 °C 1016.8 hPa North 9.0 km/h 9.0 km/h 98 % 1.5 mm
09:41 9.3 °C 9.0 °C 1016.8 hPa North 4.3 km/h 9.0 km/h 98 % 1.5 mm
09:45 9.2 °C 9.0 °C 1016.8 hPa NE 6.4 km/h 9.3 km/h 98 % 1.0 mm
09:50 9.2 °C 9.0 °C 1016.8 hPa NE 9.3 km/h 11.9 km/h 98 % 1.3 mm
09:55 9.2 °C 9.0 °C 1016.8 hPa NNE 6.4 km/h 14.0 km/h 98 % 1.3 mm
10:01 9.1 °C 9.0 °C 1016.8 hPa NE 7.9 km/h 14.0 km/h 98 % 1.5 mm
10:06 9.0 °C 9.0 °C 1016.8 hPa NNE 11.9 km/h 14.0 km/h 98 % 1.5 mm
10:11 8.9 °C 9.0 °C 1016.8 hPa NE 13.0 km/h 14.0 km/h 98 % 1.3 mm
10:16 8.8 °C 9.0 °C 1016.8 hPa NNE 10.5 km/h 13.0 km/h 98 % 1.3 mm
10:21 8.9 °C 9.0 °C 1016.1 hPa NE 10.1 km/h 12.6 km/h 98 % 1.3 mm
10:26 8.9 °C 9.0 °C 1016.1 hPa NE 7.6 km/h 11.6 km/h 98 % 1.3 mm
10:31 9.0 °C 9.0 °C 1016.1 hPa NNE 9.7 km/h 11.6 km/h 98 % 1.3 mm
10:36 9.1 °C 9.0 °C 1016.8 hPa East 7.9 km/h 11.6 km/h 98 % 1.0 mm
10:41 9.2 °C 9.0 °C 1016.8 hPa East 7.6 km/h 9.7 km/h 98 % 1.3 mm
10:46 9.2 °C 9.0 °C 1016.8 hPa ENE 6.9 km/h 11.6 km/h 98 % 1.3 mm
10:48 9.2 °C 9.0 °C 1016.8 hPa ENE 9.7 km/h 11.6 km/h 98 % 1.0 mm
10:53 9.2 °C 9.0 °C 1016.8 hPa ENE 5.8 km/h 11.6 km/h 98 % 1.0 mm
10:58 9.3 °C 9.0 °C 1016.8 hPa ENE 12.2 km/h 12.2 km/h 98 % 0.5 mm
11:03 9.2 °C 9.0 °C 1016.8 hPa NE 5.8 km/h 12.6 km/h 98 % 0.8 mm
11:08 9.3 °C 9.0 °C 1016.8 hPa NE 5.5 km/h 12.6 km/h 98 % 0.8 mm
11:13 9.4 °C 9.0 °C 1016.8 hPa East 10.1 km/h 11.9 km/h 98 % 0.8 mm
11:18 9.4 °C 9.0 °C 1016.8 hPa ENE 10.1 km/h 13.0 km/h 98 % 0.8 mm
11:23 9.5 °C 10.0 °C 1016.1 hPa ENE 8.7 km/h 13.0 km/h 98 % 0.5 mm
11:28 9.6 °C 10.0 °C 1016.1 hPa ENE 4.3 km/h 11.9 km/h 98 % 0.5 mm
11:33 9.8 °C 10.0 °C 1016.1 hPa ENE 5.0 km/h 9.3 km/h 98 % 0.8 mm
11:38 9.9 °C 10.0 °C 1016.8 hPa ENE 7.9 km/h 10.1 km/h 98 % 0.8 mm
11:43 9.9 °C 10.0 °C 1016.8 hPa ENE 7.9 km/h 10.1 km/h 97 % 0.5 mm
11:48 10.0 °C 10.0 °C 1016.8 hPa NE 6.1 km/h 9.3 km/h 97 % 0.5 mm
11:53 10.2 °C 10.0 °C 1016.8 hPa NE 6.4 km/h 7.9 km/h 97 % 0.5 mm
11:58 10.3 °C 10.0 °C 1016.8 hPa ENE 7.2 km/h 11.9 km/h 96 % 0.5 mm
12:03 10.4 °C 10.0 °C 1016.8 hPa ENE 5.8 km/h 11.9 km/h 96 % 0.3 mm
12:08 10.6 °C 10.0 °C 1016.8 hPa NE 10.1 km/h 10.1 km/h 96 % 0.3 mm
12:13 10.6 °C 10.0 °C 1016.8 hPa NNE 4.3 km/h 10.5 km/h 96 % 0.3 mm
12:18 10.7 °C 10.0 °C 1016.8 hPa NNE 10.1 km/h 12.2 km/h 95 % 0.3 mm
12:23 10.8 °C 10.0 °C 1016.8 hPa NE 6.1 km/h 12.2 km/h 94 % 0.3 mm
12:28 10.9 °C 10.0 °C 1016.8 hPa NE 13.0 km/h 13.0 km/h 94 % 0.3 mm
12:33 10.9 °C 10.0 °C 1016.8 hPa NE 10.1 km/h 13.0 km/h 94 % 0.0 mm
12:38 11.1 °C 10.0 °C 1016.8 hPa Calm   13.0 km/h 93 % 0.0 mm
12:43 11.3 °C 10.0 °C 1016.8 hPa North 9.7 km/h 10.5 km/h 93 % 0.0 mm
12:48 11.3 °C 10.0 °C 1016.8 hPa NE 6.4 km/h 11.6 km/h 93 % 0.0 mm
12:53 11.2 °C 10.0 °C 1016.8 hPa NE 4.7 km/h 11.6 km/h 93 % 0.0 mm
12:58 11.2 °C 10.0 °C 1016.8 hPa NNE 6.4 km/h 10.5 km/h 93 % 0.0 mm
13:03 11.1 °C 10.0 °C 1016.8 hPa North 8.7 km/h 10.5 km/h 93 % 0.0 mm
13:08 10.9 °C 10.0 °C 1016.1 hPa NNE 9.0 km/h 10.1 km/h 93 % 0.0 mm
13:13 10.6 °C 10.0 °C 1016.1 hPa North 6.4 km/h 13.0 km/h 93 % 0.0 mm
13:19 10.5 °C 10.0 °C 1016.1 hPa NE 6.1 km/h 13.0 km/h 93 % 0.0 mm
13:24 10.6 °C 10.0 °C 1016.8 hPa North 7.9 km/h 12.2 km/h 94 % 0.0 mm
13:29 10.6 °C 10.0 °C 1016.8 hPa NE 6.9 km/h 10.5 km/h 94 % 0.0 mm
13:34 10.5 °C 10.0 °C 1016.8 hPa NNE 10.5 km/h 10.5 km/h 94 % 0.0 mm
13:39 10.4 °C 9.0 °C 1016.8 hPa NE 6.1 km/h 10.5 km/h 94 % 0.0 mm
13:44 10.4 °C 9.0 °C 1016.8 hPa NNE 6.1 km/h 9.7 km/h 94 % 0.0 mm
13:49 10.3 °C 9.0 °C 1016.8 hPa ENE 5.5 km/h 9.3 km/h 94 % 0.0 mm
13:54 10.2 °C 10.0 °C 1016.8 hPa NE 8.7 km/h 10.5 km/h 95 % 0.0 mm
13:59 10.2 °C 10.0 °C 1016.8 hPa ENE 10.1 km/h 13.0 km/h 95 % 0.0 mm
14:04 10.1 °C 9.0 °C 1016.8 hPa ENE 9.0 km/h 13.0 km/h 95 % 0.0 mm
14:09 10.0 °C 9.0 °C 1016.8 hPa ENE 8.7 km/h 12.2 km/h 95 % 0.0 mm
14:14 10.0 °C 9.0 °C 1016.8 hPa NE 13.0 km/h 14.0 km/h 95 % 0.0 mm
14:19 10.1 °C 10.0 °C 1016.8 hPa NE 6.4 km/h 14.0 km/h 96 % 0.0 mm
14:24 10.3 °C 10.0 °C 1016.8 hPa NE 10.1 km/h 14.0 km/h 96 % 0.0 mm
14:29 10.7 °C 10.0 °C 1016.8 hPa Calm   12.2 km/h 97 % 0.0 mm
14:34 11.0 °C 11.0 °C 1016.8 hPa NNE 10.5 km/h 12.2 km/h 97 % 0.0 mm
14:39 11.5 °C 11.0 °C 1016.8 hPa NNE 9.0 km/h 13.0 km/h 97 % 0.0 mm
14:44 11.9 °C 12.0 °C 1016.8 hPa ENE 10.5 km/h 13.0 km/h 96 % 0.0 mm
14:49 12.5 °C 13.0 °C 1016.8 hPa NNE 9.0 km/h 12.6 km/h 96 % 0.0 mm
14:54 12.5 °C 12.0 °C 1016.8 hPa NE 13.0 km/h 13.0 km/h 95 % 0.0 mm
14:59 13.0 °C 12.0 °C 1016.8 hPa East 7.2 km/h 13.7 km/h 93 % 0.0 mm
15:04 13.4 °C 13.0 °C 1016.8 hPa ENE 9.3 km/h 13.7 km/h 93 % 0.0 mm
15:09 13.2 °C 12.0 °C 1016.8 hPa NE 9.3 km/h 14.0 km/h 91 % 0.0 mm
15:14 12.4 °C 11.0 °C 1016.8 hPa NE 7.9 km/h 16.3 km/h 88 % 0.0 mm
15:19 12.0 °C 10.0 °C 1016.8 hPa NE 9.0 km/h 16.3 km/h 88 % 0.0 mm
15:24 11.7 °C 10.0 °C 1016.8 hPa NE 10.1 km/h 15.4 km/h 90 % 0.0 mm
15:28 11.5 °C 10.0 °C 1016.8 hPa ENE 9.0 km/h 15.4 km/h 90 % 0.0 mm
15:33 11.3 °C 10.0 °C 1016.8 hPa East 13.0 km/h 14.0 km/h 89 % 0.0 mm
15:38 11.1 °C 9.0 °C 1016.8 hPa ENE 9.3 km/h 14.0 km/h 89 % 0.0 mm
15:43 11.1 °C 9.0 °C 1016.8 hPa ENE 6.9 km/h 12.2 km/h 90 % 0.0 mm
15:48 11.2 °C 10.0 °C 1016.8 hPa ENE 5.8 km/h 11.6 km/h 90 % 0.0 mm
15:53 11.5 °C 10.0 °C 1016.8 hPa ENE 6.1 km/h 11.6 km/h 91 % 0.0 mm
15:58 12.0 °C 11.0 °C 1016.8 hPa East 6.9 km/h 12.2 km/h 91 % 0.0 mm
16:00 12.1 °C 11.0 °C 1016.8 hPa NNE 6.1 km/h 12.2 km/h 91 % 0.0 mm
16:05 12.7 °C 12.0 °C 1016.8 hPa ENE 9.7 km/h 12.2 km/h 91 % 0.0 mm
16:10 13.5 °C 12.0 °C 1016.8 hPa ENE 9.3 km/h 11.6 km/h 89 % 0.0 mm
16:15 13.9 °C 12.0 °C 1016.8 hPa NE 12.2 km/h 13.0 km/h 88 % 0.0 mm
16:21 13.6 °C 11.0 °C 1016.8 hPa NE 9.3 km/h 16.6 km/h 84 % 0.0 mm
16:23 13.6 °C 11.0 °C 1016.1 hPa East 4.7 km/h 16.6 km/h 84 % 0.0 mm
16:28 13.6 °C 11.0 °C 1016.1 hPa NE 8.7 km/h 13.0 km/h 83 % 0.0 mm
16:33 13.4 °C 11.0 °C 1016.1 hPa ENE 7.9 km/h 11.9 km/h 83 % 0.0 mm
16:37 12.9 °C 10.0 °C 1016.8 hPa East 9.0 km/h 12.2 km/h 82 % 0.0 mm
16:43 12.5 °C 10.0 °C 1016.8 hPa East 9.3 km/h 12.6 km/h 82 % 0.0 mm
16:48 12.5 °C 10.0 °C 1016.8 hPa ENE 10.1 km/h 12.6 km/h 83 % 0.0 mm
16:53 12.5 °C 10.0 °C 1016.1 hPa ENE 13.0 km/h 13.7 km/h 82 % 0.0 mm
16:58 12.5 °C 10.0 °C 1016.1 hPa ENE 11.1 km/h 13.7 km/h 82 % 0.0 mm
17:03 12.5 °C 10.0 °C 1016.1 hPa ESE 9.7 km/h 14.0 km/h 81 % 0.0 mm
17:08 12.5 °C 10.0 °C 1016.8 hPa ENE 12.6 km/h 14.0 km/h 81 % 0.0 mm
17:13 12.5 °C 10.0 °C 1016.8 hPa ENE 10.5 km/h 13.0 km/h 80 % 0.0 mm
17:18 12.5 °C 10.0 °C 1016.8 hPa East 5.0 km/h 13.0 km/h 80 % 0.0 mm
17:23 12.5 °C 10.0 °C 1016.8 hPa East 3.5 km/h 11.9 km/h 80 % 0.0 mm
17:28 12.4 °C 9.0 °C 1016.8 hPa NE 4.7 km/h 11.9 km/h 81 % 0.0 mm
17:33 12.4 °C 9.0 °C 1016.8 hPa East 5.8 km/h 11.9 km/h 81 % 0.0 mm
17:38 12.4 °C 10.0 °C 1016.1 hPa Calm   9.3 km/h 82 % 0.0 mm
17:43 12.4 °C 10.0 °C 1016.1 hPa ENE 9.7 km/h 9.7 km/h 82 % 0.0 mm
17:48 12.5 °C 10.0 °C 1016.1 hPa East 7.9 km/h 10.8 km/h 81 % 0.0 mm
17:53 12.7 °C 10.0 °C 1016.8 hPa East 7.9 km/h 10.8 km/h 80 % 0.0 mm
17:58 12.8 °C 10.0 °C 1016.8 hPa East 5.0 km/h 9.7 km/h 81 % 0.0 mm
18:03 12.9 °C 10.0 °C 1016.8 hPa ENE 5.8 km/h 9.7 km/h 80 % 0.0 mm
18:09 13.1 °C 10.0 °C 1016.1 hPa East 1.4 km/h 9.7 km/h 79 % 0.0 mm
18:14 12.9 °C 10.0 °C 1016.1 hPa NNE 7.6 km/h 10.5 km/h 79 % 0.0 mm
18:20 12.9 °C 10.0 °C 1016.1 hPa ENE 7.9 km/h 10.5 km/h 79 % 0.0 mm
18:23 12.9 °C 10.0 °C 1016.1 hPa East 1.4 km/h 10.5 km/h 79 % 0.0 mm
18:28 13.0 °C 9.0 °C 1016.1 hPa Calm   9.7 km/h 78 % 0.0 mm
18:33 13.2 °C 10.0 °C 1016.1 hPa East 4.7 km/h 7.6 km/h 78 % 0.0 mm
18:38 13.1 °C 9.0 °C 1016.8 hPa East 4.7 km/h 7.6 km/h 77 % 0.0 mm
18:43 12.9 °C 9.0 °C 1016.8 hPa NE 10.5 km/h 10.5 km/h 77 % 0.0 mm
18:48 12.7 °C 9.0 °C 1016.8 hPa East 9.3 km/h 13.7 km/h 77 % 0.0 mm
18:53 12.7 °C 9.0 °C 1016.8 hPa NNE 12.6 km/h 13.7 km/h 78 % 0.0 mm
18:58 12.9 °C 9.0 °C 1016.8 hPa ENE 9.3 km/h 13.7 km/h 78 % 0.0 mm
19:03 13.0 °C 9.0 °C 1016.8 hPa ENE 7.9 km/h 12.6 km/h 78 % 0.0 mm
19:08 13.2 °C 10.0 °C 1016.8 hPa NNE 7.6 km/h 11.9 km/h 78 % 0.0 mm
19:13 13.1 °C 9.0 °C 1016.8 hPa NE 6.9 km/h 12.2 km/h 77 % 0.0 mm
19:18 13.0 °C 9.0 °C 1016.8 hPa NE 10.1 km/h 12.2 km/h 77 % 0.0 mm
19:23 13.1 °C 9.0 °C 1016.8 hPa NNE 8.7 km/h 13.7 km/h 76 % 0.0 mm
19:28 13.1 °C 9.0 °C 1016.8 hPa NE 6.9 km/h 13.7 km/h 76 % 0.0 mm
19:33 13.2 °C 9.0 °C 1016.8 hPa NE 11.6 km/h 12.2 km/h 76 % 0.0 mm
19:38 13.0 °C 9.0 °C 1016.8 hPa NE 13.7 km/h 13.7 km/h 76 % 0.0 mm
19:44 13.0 °C 9.0 °C 1016.8 hPa NE 9.7 km/h 14.0 km/h 75 % 0.0 mm
19:49 13.1 °C 9.0 °C 1016.8 hPa NE 9.0 km/h 14.0 km/h 75 % 0.0 mm
19:54 13.1 °C 9.0 °C 1016.8 hPa North 7.6 km/h 14.0 km/h 75 % 0.0 mm
19:59 12.9 °C 9.0 °C 1016.8 hPa North 9.3 km/h 14.0 km/h 76 % 0.0 mm
20:04 12.7 °C 9.0 °C 1016.8 hPa NE 9.0 km/h 12.2 km/h 78 % 0.0 mm
20:09 12.5 °C 9.0 °C 1016.8 hPa NE 6.4 km/h 10.5 km/h 79 % 0.0 mm
20:14 12.4 °C 9.0 °C 1016.8 hPa NNE 8.7 km/h 10.5 km/h 80 % 0.0 mm
20:19 12.3 °C 9.0 °C 1016.8 hPa NE 5.0 km/h 10.5 km/h 80 % 0.0 mm
20:24 12.1 °C 9.0 °C 1016.8 hPa North 7.9 km/h 9.3 km/h 81 % 0.0 mm
20:29 11.9 °C 9.0 °C 1016.8 hPa NNE 6.4 km/h 9.3 km/h 82 % 0.0 mm
20:34 11.8 °C 9.0 °C 1016.8 hPa NE 6.4 km/h 9.3 km/h 83 % 0.0 mm
20:39 11.6 °C 9.0 °C 1016.8 hPa ENE 4.7 km/h 9.0 km/h 84 % 0.0 mm
20:44 11.5 °C 9.0 °C 1016.8 hPa NNE 4.0 km/h 9.0 km/h 84 % 0.0 mm
20:49 11.3 °C 9.0 °C 1016.8 hPa NW 5.8 km/h 6.9 km/h 84 % 0.0 mm
20:51 11.3 °C 9.0 °C 1016.8 hPa North 4.3 km/h 6.9 km/h 84 % 0.0 mm
20:56 11.2 °C 9.0 °C 1018.2 hPa NNE 4.0 km/h 6.9 km/h 84 % 0.0 mm
21:01 11.1 °C 9.0 °C 1018.2 hPa North 4.7 km/h 6.9 km/h 85 % 0.0 mm
21:06 11.1 °C 9.0 °C 1018.2 hPa NW 3.2 km/h 7.2 km/h 85 % 0.0 mm
21:11 11.0 °C 9.0 °C 1018.2 hPa North 5.5 km/h 9.7 km/h 85 % 0.0 mm
21:16 11.0 °C 9.0 °C 1018.2 hPa North 4.7 km/h 9.7 km/h 85 % 0.0 mm
21:21 10.9 °C 9.0 °C 1018.2 hPa NNE 7.9 km/h 7.9 km/h 86 % 0.0 mm
21:26 10.9 °C 9.0 °C 1018.2 hPa NE 5.8 km/h 9.0 km/h 86 % 0.0 mm
21:31 10.7 °C 9.0 °C 1018.2 hPa NNW 6.4 km/h 9.0 km/h 86 % 0.0 mm
21:36 10.6 °C 9.0 °C 1018.2 hPa North 6.9 km/h 8.7 km/h 86 % 0.0 mm
21:41 10.5 °C 9.0 °C 1018.2 hPa North 4.3 km/h 9.3 km/h 86 % 0.0 mm
21:46 10.4 °C 9.0 °C 1018.2 hPa North 4.3 km/h 9.3 km/h 87 % 0.0 mm
21:50 10.3 °C 9.0 °C 1018.2 hPa North 3.5 km/h 9.3 km/h 87 % 0.0 mm
21:51 10.3 °C 9.0 °C 1018.2 hPa North 5.0 km/h 7.2 km/h 87 % 0.0 mm
21:56 10.2 °C 9.0 °C 1018.2 hPa North 2.6 km/h 7.2 km/h 87 % 0.0 mm
22:01 10.1 °C 8.0 °C 1018.2 hPa NNW 4.0 km/h 8.7 km/h 88 % 0.0 mm
22:06 10.1 °C 8.0 °C 1018.2 hPa NNW 4.7 km/h 8.7 km/h 88 % 0.0 mm
22:11 10.1 °C 9.0 °C 1018.2 hPa North 4.0 km/h 6.4 km/h 89 % 0.0 mm
22:16 10.1 °C 9.0 °C 1018.2 hPa North 8.7 km/h 8.7 km/h 89 % 0.0 mm
22:21 10.1 °C 9.0 °C 1018.2 hPa NNE 4.7 km/h 8.7 km/h 89 % 0.0 mm
22:26 10.1 °C 9.0 °C 1018.2 hPa North 7.2 km/h 8.7 km/h 89 % 0.0 mm
22:31 10.1 °C 9.0 °C 1018.2 hPa North 5.0 km/h 10.1 km/h 89 % 0.0 mm
22:36 10.0 °C 9.0 °C 1018.2 hPa North 8.7 km/h 10.1 km/h 89 % 0.0 mm
22:41 10.1 °C 9.0 °C 1018.2 hPa North 6.9 km/h 9.3 km/h 90 % 0.0 mm
22:46 10.1 °C 9.0 °C 1018.2 hPa North 5.8 km/h 9.0 km/h 90 % 0.0 mm
22:51 10.1 °C 9.0 °C 1018.2 hPa NNE 10.1 km/h 13.7 km/h 91 % 0.0 mm
22:56 10.1 °C 9.0 °C 1018.2 hPa North 10.1 km/h 13.7 km/h 91 % 0.0 mm
23:01 10.1 °C 9.0 °C 1018.2 hPa North 6.4 km/h 11.6 km/h 91 % 0.0 mm
23:07 10.1 °C 9.0 °C 1018.2 hPa WNW 6.9 km/h 14.0 km/h 91 % 0.0 mm
23:12 10.1 °C 9.0 °C 1018.2 hPa NNE 6.1 km/h 14.0 km/h 91 % 0.0 mm
23:17 10.1 °C 9.0 °C 1018.2 hPa NNE 5.8 km/h 13.7 km/h 91 % 0.0 mm
23:22 10.0 °C 9.0 °C 1018.2 hPa NE 7.9 km/h 11.9 km/h 91 % 0.0 mm
23:27 9.8 °C 9.0 °C 1018.2 hPa North 5.0 km/h 10.5 km/h 91 % 0.0 mm
23:32 9.7 °C 9.0 °C 1018.2 hPa NE 6.4 km/h 9.0 km/h 92 % 0.0 mm
23:37 9.6 °C 9.0 °C 1018.2 hPa NE 6.9 km/h 8.7 km/h 92 % 0.0 mm
23:42 9.5 °C 9.0 °C 1018.2 hPa North 8.7 km/h 9.7 km/h 93 % 0.0 mm
23:47 9.4 °C 9.0 °C 1018.2 hPa NNE 6.1 km/h 10.1 km/h 93 % 0.0 mm
23:52 9.3 °C 9.0 °C 1018.2 hPa ENE 4.0 km/h 10.1 km/h 93 % 0.0 mm
23:57 9.3 °C 9.0 °C 1018.2 hPa NE 5.0 km/h 9.3 km/h 93 % 0.0 mm
Le Gheer Warneton
Courtoisie de Weather Underground - 2.25 mb

Mise a jour : 17/12/2017 22:20:15
Généré par Cumulus 1.9.4 (1099)